Location: Melbourne
(37.8170°S, 144.9670°E)
Time: 22:36:24
(UTC+10:00)

Explorer 11/Cluster Stage 4 - Visible Passes

Search period start: 24 April 2018 00:00
Search period end: 04 May 2018 00:00
Orbit: 467 x 1261 km, 28.8° (Epoch: 23 April)

Date Brightness Start Highest point End Pass type
(mag) Time Alt. Az. Time Alt. Az. Time Alt. Az.
25 Apr 8.8 19:36:32 10° N 19:37:42 12° NNE 19:37:42 12° NNE visible
26 Apr 8.6 19:25:41 10° N 19:28:02 14° NNE 19:28:02 14° NNE visible
27 Apr 8.5 19:14:58 10° N 19:18:01 15° NNE 19:18:21 15° NNE visible
28 Apr 8.4 19:04:22 10° N 19:07:31 16° NNE 19:08:38 15° NE visible
28 Apr 9.2 20:50:15 10° NW 20:50:47 13° NW 20:50:47 13° NW visible
29 Apr 8.2 18:53:50 10° NNW 18:57:03 17° NNE 18:58:52 15° NE visible
29 Apr 8.9 20:39:58 10° NW 20:41:01 15° NW 20:41:01 15° NW visible
30 Apr 8.1 18:43:23 10° NNW 18:46:36 18° NNE 18:49:05 14° NE visible
30 Apr 8.7 20:29:43 10° NW 20:31:13 18° NW 20:31:13 18° NW visible
01 May 8.0 18:32:58 10° NNW 18:36:10 19° NNE 18:39:16 12° ENE visible
01 May 8.4 20:19:30 10° WNW 20:21:25 21° NW 20:21:25 21° NW visible
02 May 7.9 18:22:37 10° NNW 18:25:47 20° NNE 18:29:24 10° ENE visible
02 May 8.2 20:09:18 10° WNW 20:11:37 24° NW 20:11:37 24° NW visible
03 May 7.8 18:12:17 10° NNW 18:15:24 20° NNE 18:18:58 10° ENE visible
03 May 7.9 19:59:08 10° WNW 20:01:48 26° NNW 20:01:48 26° NNW visible
